Content
SEND FEEDBACK

Daily
Averages
Monthly
Summary
Canada

VANCOUVER - UNIVERSITY, BRITISH COLUMBIA


Home > North America > Canada > British Columbia
Elevation: 249 feet     Latitude: 49 15N     Longitude: 123 15W

WEATHER
 
SELECT A DAY
Number of Records: 199,644;   Date Range: 1/1/95 - 12/19/14
 
SHARE

PRINT THIS DATA

[ ← Previous Day ]
WEATHER ALMANAC - FEBRUARY 6, 2013
[ Next Day → ]
[ °C ]   °F
Weather ElementAverageHighLow
Temperature44.3 °F46.4 °F (12:00 pm)41 °F (8:00 pm)
Dewpoint34.2 °F40 °F (4:00 pm) (7:00 pm)
Humidity77.5 %87 % (5:00 pm)66 % (4:00 am)
Barometer26.93 in30.00 in (10:00 am) (7:00 pm)
Wind Speed14.5 mph20.7 mph (10:00 pm)
Wind Gust27.6 mph (8:29 pm)
Weather ElementAverage
Visibility13.9 mi
Wind DirectionESE (128 °)

Weather ElementTotal
Precipitation---
Heating Degree Days21.3 (Base 65)
Averaged from 30 records on February 6, 2013
WEATHER CONDITIONS BREAKOUT
WIND DIRECTION BREAKOUT
WEATHER BY HOUR - FEBRUARY 6, 2013
[ °C ]   °F
Local TimeTemperatureDewpointHumidityBarometerVisibilityWind DirectionWind SpeedGust SpeedPrecipitationEventsConditions
1:00 AM44.6 °F37.4 °F76 %29.88 in15.0 miSouth (180°)11.5 mph17.3 mphOvercast
2:00 AM44.6 °F37.4 °F76 %29.89 in15.0 miSouth (180°)17.3 mphOvercast
3:00 AM44.6 °F37.4 °F76 %29.91 in15.0 miSouth (180°)15.0 mphOvercast
4:00 AM45.0 °F37.0 °F66 %29.94 in15.0 miSouth (170°)12.7 mphPartly Cloudy
4:00 AM44.6 °F37.4 °F76 %29.94 in15.0 miSouth (180°)11.5 mph17.3 mphOvercast
5:00 AM44.6 °F37.4 °F76 %29.94 in15.0 miSSE (160°)9.2 mphOvercast
6:00 AM44.6 °F37.4 °F76 %29.96 in15.0 miSSE (160°)11.5 mphOvercast
7:00 AM44.6 °F37.4 °F76 %29.97 in15.0 miSSE (150°)9.2 mphOvercast
8:00 AM42.8 °F37.4 °F81 %29.98 in15.0 miSSE (160°)10.4 mphScattered Clouds
8:53 AM44.6 °F0.0 °F15.0 miSE (140°)13.8 mphOvercast
9:00 AM44.6 °F39.2 °F81 %29.99 in15.0 miSE (140°)12.7 mphOvercast
10:00 AM45.0 °F38.0 °F70 %30.00 in15.0 miSE (140°)10.4 mphOvercast
10:00 AM44.6 °F39.2 °F81 %30.00 in15.0 miSE (130°)11.5 mphOvercast
11:00 AM44.6 °F39.2 °F81 %29.99 in15.0 miSE (130°)15.0 mphOvercast
12:00 PM46.4 °F39.2 °F76 %29.98 in15.0 miSE (130°)13.8 mphOvercast
12:42 PM46.4 °F0.0 °F15.0 miSE (130°)15.0 mph21.9 mphRainLight Rain Showers
1:00 PM46.4 °F39.2 °F76 %29.97 in15.0 miESE (120°)15.0 mphRainLight Rain Showers
2:00 PM46.4 °F39.2 °F76 %29.95 in12.0 miSE (130°)11.5 mphRainLight Rain
3:00 PM44.6 °F39.2 °F81 %29.94 in7.0 miSE (140°)11.5 mphRainLight Rain
4:00 PM44.0 °F40.0 °F79 %29.93 in12.0 miESE (120°)13.8 mphRainLight Rain
4:00 PM44.6 °F39.2 °F81 %29.93 in12.0 miESE (110°)12.7 mph19.6 mphRainLight Rain
5:00 PM42.8 °F39.2 °F87 %29.91 in12.0 miEast (90°)15.0 mphRainLight Rain
6:00 PM42.8 °F39.2 °F87 %29.89 in12.0 miEast (90°)19.6 mphRainLight Rain
7:00 PM42.8 °F37.4 °F81 %29.87 in10.0 miEast (90°)18.4 mph25.3 mphRainLight Rain
8:00 PM41.0 °F37.4 °F87 %29.85 in10.0 miEast (80°)18.4 mphRainLight Rain
8:29 PM42.8 °F0.0 °F15.0 miEast (80°)19.6 mph27.6 mphOvercast
9:00 PM42.8 °F37.4 °F81 %29.82 in15.0 miEast (80°)17.3 mph27.6 mphOvercast
10:00 PM44.0 °F36.0 °F66 %29.79 in15.0 miEast (80°)19.6 mphPartly Cloudy
10:00 PM44.6 °F35.6 °F71 %29.79 in15.0 miEast (80°)20.7 mphOvercast
11:00 PM44.6 °F35.6 °F71 %29.77 in15.0 miEast (90°)20.7 mphOvercast
Hourly data recorded from CYVR, located miles away from Vancouver - University, British Columbia







STORIES FROM OUR PARTNERS